| time (UTC) | temp F | wind direction | speed MPH | gust MPH | rain 1hr in | rain 24hr in | rain mn in | humidity % | barometer mb |
| 20260507115638 | 44 | 232 | 9.0 | 10.0 | 0.00 | 0.00 | 0.00 | 83 | |
| 20260507115134 | 44 | 231 | 11.0 | 13.0 | 0.00 | 0.00 | 0.00 | 83 | |
| 20260507114630 | 44 | 206 | 9.0 | 11.0 | 0.00 | 0.00 | 0.00 | 84 | |
| 20260507114127 | 44 | 222 | 7.0 | 10.0 | 0.00 | 0.00 | 0.00 | 85 | |
| 20260507113625 | 44 | 223 | 6.0 | 11.0 | 0.00 | 0.00 | 0.00 | 85 | |
| 20260507113122 | 44 | 218 | 6.0 | 13.0 | 0.00 | 0.00 | 0.00 | 85 | |
| 20260507112620 | 43 | 213 | 6.0 | 10.0 | 0.00 | 0.00 | 0.00 | 85 | |
| 20260507112116 | 44 | 227 | 12.0 | 15.0 | 0.00 | 0.00 | 0.00 | 85 | |
| 20260507111613 | 44 | 241 | 9.0 | 10.0 | 0.00 | 0.00 | 0.00 | 85 | |
| 20260507111110 | 44 | 226 | 7.0 | 13.0 | 0.00 | 0.00 | 0.00 | 85 | |
| 20260507110606 | 44 | 202 | 9.0 | 11.0 | 0.00 | 0.00 | 0.00 | 85 | |
| 20260507105600 | 44 | 206 | 5.0 | 11.0 | 0.00 | 0.00 | 0.00 | 84 | |
| 20260507105055 | 44 | 211 | 4.0 | 13.0 | 0.00 | 0.00 | 0.00 | 84 | |
| 20260507104553 | 44 | 215 | 10.0 | 14.0 | 0.00 | 0.00 | 0.00 | 84 | |
| 20260507104049 | 44 | 231 | 10.0 | 11.0 | 0.00 | 0.00 | 0.00 | 84 | |
| 20260507103546 | 44 | 197 | 8.0 | 13.0 | 0.00 | 0.00 | 0.00 | 84 | |
| 20260507103043 | 44 | 239 | 7.0 | 13.0 | 0.00 | 0.00 | 0.00 | 84 | |
| 20260507102539 | 44 | 237 | 10.0 | 11.0 | 0.00 | 0.00 | 0.00 | 84 | |
| 20260507102035 | 44 | 218 | 11.0 | 14.0 | 0.00 | 0.00 | 0.00 | 83 | |
| 20260507101531 | 44 | 219 | 10.0 | 13.0 | 0.00 | 0.00 | 0.00 | 83 | |
| 20260507101027 | 44 | 227 | 8.0 | 13.0 | 0.00 | 0.00 | 0.00 | 83 | |
| 20260507100525 | 44 | 229 | 7.0 | 11.0 | 0.00 | 0.00 | 0.00 | 83 | |
| 20260507100023 | 44 | 220 | 8.0 | 10.0 | 0.00 | 0.00 | 0.00 | 83 | |
| 20260507095520 | 44 | 214 | 7.0 | 10.0 | 0.00 | 0.00 | 0.00 | 83 | |
| 20260507095017 | 44 | 221 | 7.0 | 10.0 | 0.00 | 0.00 | 0.00 | 82 | |
| 20260507094513 | 44 | 234 | 5.0 | 10.0 | 0.00 | 0.00 | 0.00 | 82 | |
| 20260507094010 | 44 | 238 | 7.0 | 10.0 | 0.00 | 0.00 | 0.00 | 81 | |
| 20260507093508 | 44 | 216 | 5.0 | 8.0 | 0.00 | 0.00 | 0.00 | 81 | |
| 20260507093006 | 45 | 249 | 7.0 | 11.0 | 0.00 | 0.00 | 0.00 | 81 | |
| 20260507092502 | 45 | 216 | 10.0 | 11.0 | 0.00 | 0.00 | 0.00 | 80 | |
| 20260507091959 | 45 | 228 | 6.0 | 11.0 | 0.00 | 0.00 | 0.00 | 80 | |
| 20260507091455 | 45 | 220 | 9.0 | 10.0 | 0.00 | 0.00 | 0.00 | 79 | |
| 20260507090951 | 46 | 230 | 9.0 | 10.0 | 0.00 | 0.00 | 0.00 | 78 | |
| 20260507090447 | 46 | 226 | 6.0 | 11.0 | 0.00 | 0.00 | 0.00 | 78 | |
| 20260507085944 | 46 | 221 | 7.0 | 10.0 | 0.00 | 0.00 | 0.00 | 78 | |
| 20260507085442 | 46 | 219 | 7.0 | 11.0 | 0.00 | 0.00 | 0.00 | 78 | |
| 20260507084938 | 46 | 242 | 9.0 | 10.0 | 0.00 | 0.00 | 0.00 | 79 | |
| 20260507084435 | 46 | 228 | 6.0 | 10.0 | 0.00 | 0.00 | 0.00 | 79 | |
| 20260507083932 | 46 | 229 | 7.0 | 11.0 | 0.00 | 0.00 | 0.00 | 78 | |
| 20260507083429 | 46 | 212 | 6.0 | 10.0 | 0.00 | 0.00 | 0.00 | 78 | |
| 20260507082925 | 46 | 228 | 9.0 | 13.0 | 0.00 | 0.00 | 0.00 | 78 | |
| 20260507082421 | 46 | 204 | 8.0 | 10.0 | 0.00 | 0.00 | 0.00 | 78 | |
| 20260507081918 | 46 | 238 | 6.0 | 11.0 | 0.00 | 0.00 | 0.00 | 77 | |
| 20260507081414 | 46 | 214 | 7.0 | 10.0 | 0.00 | 0.00 | 0.00 | 77 | |
| 20260507080911 | 46 | 242 | 10.0 | 11.0 | 0.00 | 0.00 | 0.00 | 77 | |
| 20260507080407 | 46 | 234 | 8.0 | 10.0 | 0.00 | 0.00 | 0.00 | 76 | |
| 20260507075902 | 46 | 204 | 7.0 | 9.0 | 0.00 | 0.00 | 0.00 | 76 | |
| 20260507075359 | 46 | 246 | 5.0 | 10.0 | 0.00 | 0.00 | 0.00 | 75 | |
| 20260507074855 | 46 | 220 | 6.0 | 9.0 | 0.00 | 0.00 | 0.00 | 74 | |
| 20260507074353 | 46 | 231 | 8.0 | 10.0 | 0.00 | 0.00 | 0.00 | 74 | |
| 20260507073850 | 46 | 200 | 5.0 | 9.0 | 0.00 | 0.00 | 0.00 | 73 | |
| 20260507073346 | 46 | 235 | 7.0 | 8.0 | 0.00 | 0.00 | 0.00 | 73 | |
| 20260507072844 | 47 | 235 | 7.0 | 10.0 | 0.00 | 0.00 | 0.00 | 72 | |
| 20260507072341 | 47 | 221 | 6.0 | 10.0 | 0.00 | 0.00 | 0.00 | 72 | |
| 20260507071838 | 47 | 221 | 5.0 | 9.0 | 0.00 | 0.00 | 0.00 | 71 | |
| 20260507071335 | 47 | 215 | 9.0 | 10.0 | 0.00 | 0.00 | 0.00 | 70 | |
| 20260507070831 | 47 | 232 | 8.0 | 11.0 | 0.00 | 0.00 | 0.00 | 70 | |
| 20260507070329 | 47 | 242 | 7.0 | 11.0 | 0.00 | 0.00 | 0.00 | 69 | |
| 20260507065825 | 47 | 228 | 7.0 | 8.0 | 0.00 | 0.00 | 0.00 | 69 | |
| 20260507065322 | 47 | 222 | 9.0 | 10.0 | 0.00 | 0.00 | 0.00 | 68 | |
| 20260507064820 | 47 | 251 | 7.0 | 10.0 | 0.00 | 0.00 | 0.00 | 67 | |
| 20260507064318 | 47 | 209 | 6.0 | 10.0 | 0.00 | 0.00 | 0.00 | 66 | |
| 20260507063816 | 47 | 232 | 6.0 | 8.0 | 0.00 | 0.00 | 0.00 | 66 | |
| 20260507063312 | 47 | 245 | 6.0 | 10.0 | 0.00 | 0.00 | 0.00 | 65 | |
| 20260507062809 | 48 | 231 | 8.0 | 9.0 | 0.00 | 0.00 | 0.00 | 64 | |
| 20260507062306 | 48 | 207 | 8.0 | 10.0 | 0.00 | 0.00 | 0.00 | 63 | |
| 20260507061804 | 48 | 252 | 5.0 | 9.0 | 0.00 | 0.00 | 0.00 | 62 | |
| 20260507061302 | 48 | 215 | 8.0 | 11.0 | 0.00 | 0.00 | 0.00 | 61 | |
| 20260507060800 | 48 | 247 | 8.0 | 11.0 | 0.00 | 0.00 | 0.00 | 61 | |
| 20260507060256 | 48 | 193 | 6.0 | 10.0 | 0.00 | 0.00 | 0.00 | 60 | |
| 20260507055752 | 48 | 250 | 5.0 | 9.0 | 0.00 | 0.00 | 0.00 | 59 | |
| 20260507055248 | 48 | 226 | 7.0 | 10.0 | 0.00 | 0.00 | 0.00 | 58 | |
| 20260507054744 | 48 | 236 | 8.0 | 9.0 | 0.00 | 0.00 | 0.00 | 57 | |
| 20260507054241 | 48 | 235 | 7.0 | 9.0 | 0.00 | 0.00 | 0.00 | 57 | |
| 20260507053739 | 48 | 210 | 7.0 | 9.0 | 0.00 | 0.00 | 0.00 | 56 | |
| 20260507053236 | 48 | 212 | 7.0 | 10.0 | 0.00 | 0.00 | 0.00 | 55 | |
| 20260507052735 | 48 | 240 | 7.0 | 10.0 | 0.00 | 0.00 | 0.00 | 54 | |
| 20260507052231 | 48 | 228 | 5.0 | 10.0 | 0.00 | 0.00 | 0.00 | 53 | |
| 20260507051729 | 48 | 194 | 6.0 | 9.0 | 0.00 | 0.00 | 0.00 | 51 | |
| 20260507051225 | 49 | 242 | 8.0 | 9.0 | 0.00 | 0.00 | 0.00 | 51 | |
| 20260507050722 | 49 | 217 | 6.0 | 8.0 | 0.00 | 0.00 | 0.00 | 50 | |
| 20260507050220 | 50 | 218 | 6.0 | 10.0 | 0.00 | 0.00 | 0.00 | 49 | |
| 20260507045716 | 50 | 226 | 8.0 | 9.0 | 0.00 | 0.00 | 0.00 | 47 | |
| 20260507045212 | 51 | 220 | 7.0 | 11.0 | 0.00 | 0.00 | 0.00 | 48 | |
| 20260507044709 | 51 | 234 | 6.0 | 8.0 | 0.00 | 0.00 | 0.00 | 47 | |
| 20260507044206 | 51 | 201 | 7.0 | 9.0 | 0.00 | 0.00 | 0.00 | 47 | |
| 20260507043702 | 51 | 214 | 6.0 | 8.0 | 0.00 | 0.00 | 0.00 | 45 | |
| 20260507043159 | 50 | 203 | 4.0 | 7.0 | 0.00 | 0.00 | 0.00 | 45 | |
| 20260507042656 | 50 | 214 | 4.0 | 4.0 | 0.00 | 0.00 | 0.00 | 44 | |
| 20260507042150 | 51 | 218 | 4.0 | 6.0 | 0.00 | 0.00 | 0.00 | 43 | |
| 20260507041648 | 51 | 216 | 4.0 | 6.0 | 0.00 | 0.00 | 0.00 | 42 | |
| 20260507041144 | 51 | 215 | 4.0 | 6.0 | 0.00 | 0.00 | 0.00 | 42 | |
| 20260507040641 | 51 | 212 | 4.0 | 8.0 | 0.00 | 0.00 | 0.00 | 43 | |
| 20260507040138 | 51 | 213 | 3.0 | 7.0 | 0.00 | 0.00 | 0.00 | 42 | |
| 20260507035634 | 51 | 239 | 4.0 | 7.0 | 0.00 | 0.00 | 0.00 | 42 | |
| 20260507035130 | 51 | 217 | 5.0 | 7.0 | 0.00 | 0.00 | 0.00 | 42 | |
| 20260507034627 | 51 | 218 | 5.0 | 7.0 | 0.00 | 0.00 | 0.00 | 42 | |
| 20260507034124 | 51 | 207 | 6.0 | 8.0 | 0.00 | 0.00 | 0.00 | 41 | |
| 20260507033623 | 51 | 211 | 4.0 | 6.0 | 0.00 | 0.00 | 0.00 | 41 | |
| 20260507033119 | 51 | 193 | 4.0 | 4.0 | 0.00 | 0.00 | 0.00 | 40 | |
| 20260507032617 | 51 | 201 | 4.0 | 4.0 | 0.00 | 0.00 | 0.00 | 41 | |
| 20260507032113 | 51 | 212 | 3.0 | 4.0 | 0.00 | 0.00 | 0.00 | 41 | |
| 20260507031609 | 52 | 204 | 4.0 | 4.0 | 0.00 | 0.00 | 0.00 | 40 | |
| 20260507031106 | 52 | 199 | 3.0 | 3.0 | 0.00 | 0.00 | 0.00 | 39 | |
| 20260507030603 | 52 | 202 | 2.0 | 3.0 | 0.00 | 0.00 | 0.00 | 40 | |
| 20260507030101 | 53 | 206 | 3.0 | 3.0 | 0.00 | 0.00 | 0.00 | 39 | |
| 20260507025558 | 52 | 204 | 2.0 | 3.0 | 0.00 | 0.00 | 0.00 | 39 | |
| 20260507025055 | 53 | 202 | 2.0 | 3.0 | 0.00 | 0.00 | 0.00 | 39 | |
| 20260507024553 | 52 | 207 | 3.0 | 3.0 | 0.00 | 0.00 | 0.00 | 39 | |
| 20260507024049 | 53 | 208 | 2.0 | 3.0 | 0.00 | 0.00 | 0.00 | 39 | |
| 20260507023545 | 53 | 203 | 3.0 | 3.0 | 0.00 | 0.00 | 0.00 | 39 | |
| 20260507023043 | 53 | 207 | 2.0 | 3.0 | 0.00 | 0.00 | 0.00 | 39 | |
| 20260507022539 | 53 | 197 | 2.0 | 3.0 | 0.00 | 0.00 | 0.00 | 39 | |
| 20260507022035 | 53 | 206 | 2.0 | 2.0 | 0.00 | 0.00 | 0.00 | 38 | |
| 20260507021531 | 54 | 201 | 2.0 | 2.0 | 0.00 | 0.00 | 0.00 | 37 | |
| 20260507021028 | 54 | 207 | 1.0 | 2.0 | 0.00 | 0.00 | 0.00 | 37 | |
| 20260507020525 | 54 | 210 | 2.0 | 2.0 | 0.00 | 0.00 | 0.00 | 37 | |
| 20260507020021 | 54 | 212 | 2.0 | 2.0 | 0.00 | 0.00 | 0.00 | 37 | |
| 20260507015520 | 54 | 217 | 2.0 | 2.0 | 0.00 | 0.00 | 0.00 | 37 | |
| 20260507015017 | 55 | 235 | 2.0 | 2.0 | 0.00 | 0.00 | 0.00 | 37 | |
| 20260507014513 | 55 | 219 | 2.0 | 2.0 | 0.00 | 0.00 | 0.00 | 36 | |
| 20260507014009 | 55 | 219 | 2.0 | 2.0 | 0.00 | 0.00 | 0.00 | 36 | |
| 20260507013506 | 56 | 231 | 2.0 | 3.0 | 0.00 | 0.00 | 0.00 | 35 | |
| 20260507013004 | 56 | 225 | 2.0 | 4.0 | 0.00 | 0.00 | 0.00 | 34 | |
| 20260507012500 | 56 | 214 | 2.0 | 2.0 | 0.00 | 0.00 | 0.00 | 34 | |
| 20260507011957 | 56 | 203 | 0.0 | 1.0 | 0.00 | 0.00 | 0.00 | 34 | |
| 20260507011454 | 57 | 219 | 1.0 | 2.0 | 0.00 | 0.00 | 0.00 | 34 | |
| 20260507010950 | 57 | 231 | 1.0 | 3.0 | 0.00 | 0.00 | 0.00 | 34 | |
| 20260507010444 | 57 | 249 | 2.0 | 4.0 | 0.00 | 0.00 | 0.00 | 34 | |
| 20260507005941 | 58 | 290 | 2.0 | 4.0 | 0.00 | 0.00 | 0.00 | 33 | |
| 20260507005439 | 58 | 241 | 2.0 | 3.0 | 0.00 | 0.00 | 0.00 | 33 | |
| 20260507004935 | 58 | 232 | 2.0 | 3.0 | 0.00 | 0.00 | 0.00 | 33 | |
| 20260507004432 | 58 | 243 | 2.0 | 4.0 | 0.00 | 0.00 | 0.00 | 32 | |
| 20260507003929 | 58 | 249 | 3.0 | 7.0 | 0.00 | 0.00 | 0.00 | 31 | |
| 20260507003424 | 58 | 257 | 2.0 | 6.0 | 0.00 | 0.00 | 0.00 | 31 | |
| 20260507002920 | 58 | 253 | 5.0 | 6.0 | 0.00 | 0.00 | 0.00 | 31 | |
| 20260507002416 | 58 | 259 | 3.0 | 7.0 | 0.00 | 0.00 | 0.00 | 32 | |
| 20260507001914 | 58 | 319 | 5.0 | 7.0 | 0.00 | 0.00 | 0.00 | 31 | |
| 20260507001410 | 59 | 266 | 1.0 | 6.0 | 0.00 | 0.00 | 0.00 | 31 | |
| 20260507000908 | 59 | 287 | 3.0 | 7.0 | 0.00 | 0.00 | 0.00 | 30 | |
| 20260507000405 | 59 | 293 | 6.0 | 9.0 | 0.00 | 0.00 | 0.00 | 30 | |
| 20260506235859 | 59 | 252 | 3.0 | 7.0 | 0.00 | 0.00 | 0.00 | 32 | |
| 20260506235356 | 58 | 281 | 6.0 | 8.0 | 0.00 | 0.00 | 0.00 | 31 | |
| 20260506234852 | 58 | 265 | 5.0 | 7.0 | 0.00 | 0.00 | 0.00 | 31 | |
| 20260506234350 | 59 | 307 | 7.0 | 9.0 | 0.00 | 0.00 | 0.00 | 30 | |
| 20260506233847 | 60 | 231 | 5.0 | 10.0 | 0.00 | 0.00 | 0.00 | 30 | |
| 20260506233343 | 60 | 272 | 10.0 | 14.0 | 0.00 | 0.00 | 0.00 | 30 | |
| 20260506232840 | 60 | 226 | 8.0 | 17.0 | 0.00 | 0.00 | 0.00 | 29 | |
| 20260506232336 | 60 | 259 | 9.0 | 10.0 | 0.00 | 0.00 | 0.00 | 28 | |
| 20260506231832 | 59 | 269 | 2.0 | 3.0 | 0.00 | 0.00 | 0.00 | 30 | |
| 20260506231330 | 58 | 233 | 2.0 | 8.0 | 0.00 | 0.00 | 0.00 | 30 | |
| 20260506230827 | 59 | 278 | 2.0 | 3.0 | 0.00 | 0.00 | 0.00 | 31 | |
| 20260506230324 | 58 | 257 | 5.0 | 8.0 | 0.00 | 0.00 | 0.00 | 30 | |
| 20260506225820 | 59 | 237 | 4.0 | 6.0 | 0.00 | 0.00 | 0.00 | 31 | |
| 20260506225318 | 58 | 281 | 4.0 | 6.0 | 0.00 | 0.00 | 0.00 | 31 | |
| 20260506224814 | 58 | 266 | 9.0 | 13.0 | 0.00 | 0.00 | 0.00 | 30 | |
| 20260506224312 | 59 | 276 | 7.0 | 9.0 | 0.00 | 0.00 | 0.00 | 30 | |
| 20260506223808 | 58 | 231 | 7.0 | 11.0 | 0.00 | 0.00 | 0.00 | 30 | |
| 20260506223303 | 59 | 276 | 9.0 | 11.0 | 0.00 | 0.00 | 0.00 | 29 | |
| 20260506222800 | 60 | 349 | 6.0 | 8.0 | 0.00 | 0.00 | 0.00 | 28 | |
| 20260506222256 | 60 | 294 | 3.0 | 10.0 | 0.00 | 0.00 | 0.00 | 28 | |
| 20260506221754 | 59 | 262 | 2.0 | 8.0 | 0.00 | 0.00 | 0.00 | 30 | |
| 20260506221252 | 58 | 321 | 5.0 | 7.0 | 0.00 | 0.00 | 0.00 | 31 | |
| 20260506220749 | 59 | 293 | 4.0 | 8.0 | 0.00 | 0.00 | 0.00 | 31 | |
| 20260506220243 | 59 | 334 | 7.0 | 10.0 | 0.00 | 0.00 | 0.00 | 30 | |
| 20260506215741 | 60 | 266 | 10.0 | 16.0 | 0.00 | 0.00 | 0.00 | 29 | |
| 20260506215237 | 59 | 7 | 8.0 | 11.0 | 0.00 | 0.00 | 0.00 | 30 | |
| 20260506214733 | 60 | 264 | 4.0 | 11.0 | 0.00 | 0.00 | 0.00 | 29 | |
| 20260506214230 | 58 | 305 | 4.0 | 11.0 | 0.00 | 0.00 | 0.00 | 30 | |
| 20260506213728 | 58 | 33 | 3.0 | 6.0 | 0.00 | 0.00 | 0.00 | 30 | |
| 20260506213225 | 58 | 262 | 8.0 | 14.0 | 0.00 | 0.00 | 0.00 | 30 | |
| 20260506212723 | 58 | 346 | 5.0 | 10.0 | 0.00 | 0.00 | 0.00 | 30 | |
| 20260506212218 | 58 | 0 | 8.0 | 13.0 | 0.00 | 0.00 | 0.00 | 30 | |
| 20260506211714 | 58 | 282 | 6.0 | 8.0 | 0.00 | 0.00 | 0.00 | 30 | |
| 20260506211210 | 59 | 276 | 14.0 | 19.0 | 0.00 | 0.00 | 0.00 | 30 | |
| 20260506210707 | 59 | 301 | 8.0 | 14.0 | 0.00 | 0.00 | 0.00 | 30 | |
| 20260506210204 | 59 | 265 | 8.0 | 18.0 | 0.00 | 0.00 | 0.00 | 30 | |
| 20260506205701 | 58 | 316 | 7.0 | 10.0 | 0.00 | 0.00 | 0.00 | 30 | |
| 20260506205156 | 57 | 270 | 2.0 | 6.0 | 0.00 | 0.00 | 0.00 | 32 | |
| 20260506204654 | 57 | 266 | 2.0 | 9.0 | 0.00 | 0.00 | 0.00 | 32 | |
| 20260506204150 | 57 | 288 | 7.0 | 9.0 | 0.00 | 0.00 | 0.00 | 31 | |
| 20260506203649 | 57 | 303 | 4.0 | 7.0 | 0.00 | 0.00 | 0.00 | 31 | |
| 20260506203145 | 57 | 350 | 7.0 | 11.0 | 0.00 | 0.00 | 0.00 | 31 | |
| 20260506202644 | 58 | 311 | 8.0 | 10.0 | 0.00 | 0.00 | 0.00 | 30 | |
| 20260506202139 | 58 | 23 | 4.0 | 13.0 | 0.00 | 0.00 | 0.00 | 30 | |
| 20260506201636 | 58 | 274 | 6.0 | 13.0 | 0.00 | 0.00 | 0.00 | 32 | |
| 20260506201133 | 58 | 280 | 8.0 | 10.0 | 0.00 | 0.00 | 0.00 | 31 | |
| 20260506200629 | 59 | 315 | 9.0 | 10.0 | 0.00 | 0.00 | 0.00 | 31 | |
| 20260506200126 | 57 | 261 | 6.0 | 8.0 | 0.00 | 0.00 | 0.00 | 32 | |
| 20260506195623 | 57 | 253 | 8.0 | 9.0 | 0.00 | 0.00 | 0.00 | 32 | |
| 20260506195119 | 57 | 234 | 4.0 | 9.0 | 0.00 | 0.00 | 0.00 | 31 | |
| 20260506194617 | 56 | 279 | 3.0 | 10.0 | 0.00 | 0.00 | 0.00 | 33 | |
| 20260506194113 | 58 | 290 | 9.0 | 11.0 | 0.00 | 0.00 | 0.00 | 31 | |
| 20260506193611 | 58 | 284 | 9.0 | 17.0 | 0.00 | 0.00 | 0.00 | 31 | |
| 20260506193108 | 59 | 309 | 15.0 | 21.0 | 0.00 | 0.00 | 0.00 | 30 | |
| 20260506192605 | 58 | 243 | 2.0 | 9.0 | 0.00 | 0.00 | 0.00 | 31 | |
| 20260506192100 | 57 | 279 | 12.0 | 14.0 | 0.00 | 0.00 | 0.00 | 31 | |
| 20260506191557 | 57 | 264 | 8.0 | 11.0 | 0.00 | 0.00 | 0.00 | 31 | |
| 20260506191053 | 56 | 358 | 7.0 | 16.0 | 0.00 | 0.00 | 0.00 | 31 | |
| 20260506190550 | 56 | 284 | 7.0 | 8.0 | 0.00 | 0.00 | 0.00 | 32 | |
| 20260506190048 | 56 | 289 | 9.0 | 13.0 | 0.00 | 0.00 | 0.00 | 32 | |
| 20260506185545 | 57 | 258 | 5.0 | 16.0 | 0.00 | 0.00 | 0.00 | 33 | |
| 20260506185041 | 56 | 287 | 8.0 | 15.0 | 0.00 | 0.00 | 0.00 | 33 | |
| 20260506184539 | 56 | 235 | 6.0 | 15.0 | 0.00 | 0.00 | 0.00 | 33 | |
| 20260506184036 | 56 | 264 | 14.0 | 22.0 | 0.00 | 0.00 | 0.00 | 32 | |
| 20260506183531 | 56 | 266 | 10.0 | 14.0 | 0.00 | 0.00 | 0.00 | 33 | |
| 20260506183028 | 55 | 301 | 8.0 | 9.0 | 0.00 | 0.00 | 0.00 | 33 | |
| 20260506182526 | 56 | 336 | 6.0 | 9.0 | 0.00 | 0.00 | 0.00 | 33 | |
| 20260506182023 | 55 | 287 | 4.0 | 10.0 | 0.00 | 0.00 | 0.00 | 33 | |
| 20260506181521 | 55 | 8 | 9.0 | 14.0 | 0.00 | 0.00 | 0.00 | 32 | |
| 20260506181017 | 55 | 251 | 8.0 | 10.0 | 0.00 | 0.00 | 0.00 | 35 | |
| 20260506180514 | 55 | 323 | 5.0 | 10.0 | 0.00 | 0.00 | 0.00 | 32 | |
| 20260506180011 | 57 | 22 | 8.0 | 10.0 | 0.00 | 0.00 | 0.00 | 32 | |
| 20260506175507 | 56 | 354 | 3.0 | 6.0 | 0.00 | 0.00 | 0.00 | 33 | |
| 20260506175003 | 55 | 227 | 4.0 | 10.0 | 0.00 | 0.00 | 0.00 | 33 | |
| 20260506174502 | 54 | 270 | 6.0 | 10.0 | 0.00 | 0.00 | 0.00 | 34 | |
| 20260506173958 | 55 | 306 | 6.0 | 8.0 | 0.00 | 0.00 | 0.00 | 33 | |
| 20260506173456 | 56 | 235 | 5.0 | 10.0 | 0.00 | 0.00 | 0.00 | 34 | |
| 20260506172952 | 54 | 293 | 6.0 | 10.0 | 0.00 | 0.00 | 0.00 | 35 | |
| 20260506172450 | 54 | 256 | 11.0 | 16.0 | 0.00 | 0.00 | 0.00 | 33 | |
| 20260506171946 | 54 | 231 | 9.0 | 13.0 | 0.00 | 0.00 | 0.00 | 34 | |
| 20260506171443 | 54 | 303 | 9.0 | 16.0 | 0.00 | 0.00 | 0.00 | 33 | |
| 20260506170941 | 53 | 262 | 5.0 | 14.0 | 0.00 | 0.00 | 0.00 | 37 | |
| 20260506170438 | 53 | 250 | 10.0 | 11.0 | 0.00 | 0.00 | 0.00 | 35 | |
| 20260506165936 | 54 | 342 | 11.0 | 13.0 | 0.00 | 0.00 | 0.00 | 34 | |
| 20260506165434 | 52 | 203 | 1.0 | 7.0 | 0.00 | 0.00 | 0.00 | 36 | |
| 20260506164930 | 54 | 343 | 12.0 | 17.0 | 0.00 | 0.00 | 0.00 | 33 | |
| 20260506164427 | 53 | 298 | 8.0 | 11.0 | 0.00 | 0.00 | 0.00 | 34 | |
| 20260506163926 | 53 | 265 | 9.0 | 16.0 | 0.00 | 0.00 | 0.00 | 34 | |
| 20260506163425 | 53 | 212 | 3.0 | 4.0 | 0.00 | 0.00 | 0.00 | 36 | |
| 20260506162920 | 53 | 261 | 1.0 | 9.0 | 0.00 | 0.00 | 0.00 | 37 | |
| 20260506162419 | 51 | 167 | 2.0 | 6.0 | 0.00 | 0.00 | 0.00 | 36 | |
| 20260506161916 | 53 | 329 | 7.0 | 11.0 | 0.00 | 0.00 | 0.00 | 35 | |
| 20260506161414 | 52 | 54 | 1.0 | 6.0 | 0.00 | 0.00 | 0.00 | 36 | |
| 20260506160911 | 52 | 352 | 10.0 | 15.0 | 0.00 | 0.00 | 0.00 | 36 | |
| 20260506160408 | 53 | 293 | 5.0 | 6.0 | 0.00 | 0.00 | 0.00 | 35 | |
| 20260506155906 | 52 | 357 | 9.0 | 11.0 | 0.00 | 0.00 | 0.00 | 36 | |
| 20260506155402 | 51 | 297 | 8.0 | 10.0 | 0.00 | 0.00 | 0.00 | 37 | |
| 20260506153519 | 51 | 14 | 8.0 | 9.0 | 0.00 | 0.00 | 0.00 | 38 | |
| 20260506153017 | 52 | 255 | 4.0 | 10.0 | 0.00 | 0.00 | 0.00 | 38 | |
| 20260506152513 | 51 | 282 | 3.0 | 9.0 | 0.00 | 0.00 | 0.00 | 40 | |
| 20260506152012 | 50 | 271 | 4.0 | 4.0 | 0.00 | 0.00 | 0.00 | 39 | |
| 20260506151509 | 50 | 290 | 7.0 | 10.0 | 0.00 | 0.00 | 0.00 | 40 | |
| 20260506151006 | 51 | 33 | 1.0 | 2.0 | 0.00 | 0.00 | 0.00 | 40 | |
| 20260506150502 | 50 | 351 | 3.0 | 4.0 | 0.00 | 0.00 | 0.00 | 40 | |
| 20260506145959 | 51 | 15 | 6.0 | 8.0 | 0.00 | 0.00 | 0.00 | 39 | |
| 20260506145455 | 51 | 310 | 2.0 | 4.0 | 0.00 | 0.00 | 0.00 | 40 | |
| 20260506144953 | 50 | 292 | 1.0 | 4.0 | 0.00 | 0.00 | 0.00 | 42 | |
| 20260506144450 | 49 | 17 | 1.0 | 4.0 | 0.00 | 0.00 | 0.00 | 41 | |
| 20260506143948 | 49 | 326 | 3.0 | 3.0 | 0.00 | 0.00 | 0.00 | 40 | |
| 20260506143444 | 50 | 24 | 2.0 | 3.0 | 0.00 | 0.00 | 0.00 | 41 | |
| 20260506142943 | 49 | 95 | 1.0 | 3.0 | 0.00 | 0.00 | 0.00 | 43 | |
| 20260506142441 | 49 | 269 | 0.0 | 1.0 | 0.00 | 0.00 | 0.00 | 43 | |
| 20260506141939 | 49 | 109 | 0.0 | 1.0 | 0.00 | 0.00 | 0.00 | 43 | |
| 20260506141436 | 48 | 29 | 1.0 | 4.0 | 0.00 | 0.00 | 0.00 | 44 | |
| 20260506140935 | 48 | 11 | 2.0 | 4.0 | 0.00 | 0.00 | 0.00 | 44 | |
| 20260506140431 | 48 | 26 | 0.0 | 3.0 | 0.00 | 0.00 | 0.00 | 44 | |
| 20260506135928 | 48 | 44 | 1.0 | 1.0 | 0.00 | 0.00 | 0.00 | 43 | |
| 20260506135425 | 48 | 35 | 1.0 | 3.0 | 0.00 | 0.00 | 0.00 | 45 | |
| 20260506134921 | 47 | 11 | 0.0 | 4.0 | 0.00 | 0.00 | 0.00 | 46 | |
| 20260506134417 | 47 | 23 | 1.0 | 4.0 | 0.00 | 0.00 | 0.00 | 47 | |
| 20260506133915 | 46 | 307 | 1.0 | 3.0 | 0.00 | 0.00 | 0.00 | 50 | |
| 20260506133411 | 46 | 3 | 2.0 | 3.0 | 0.00 | 0.00 | 0.00 | 50 | |
| 20260506132908 | 46 | 10 | 1.0 | 2.0 | 0.00 | 0.00 | 0.00 | 49 | |
| 20260506132405 | 45 | 8 | 3.0 | 4.0 | 0.00 | 0.00 | 0.00 | 52 | |
| 20260506131903 | 44 | 9 | 3.0 | 4.0 | 0.00 | 0.00 | 0.00 | 52 | |
| 20260506131359 | 44 | 4 | 4.0 | 6.0 | 0.00 | 0.00 | 0.00 | 52 | |
| 20260506130856 | 44 | 344 | 5.0 | 6.0 | 0.00 | 0.00 | 0.00 | 53 | |
| 20260506130352 | 44 | 345 | 5.0 | 6.0 | 0.00 | 0.00 | 0.00 | 53 | |
| 20260506125851 | 44 | 308 | 3.0 | 6.0 | 0.00 | 0.00 | 0.00 | 55 | |
| 20260506125349 | 44 | 325 | 2.0 | 3.0 | 0.00 | 0.00 | 0.00 | 57 | |
| 20260506124847 | 43 | 296 | 2.0 | 2.0 | 0.00 | 0.00 | 0.00 | 60 | |
| 20260506124343 | 42 | 254 | 1.0 | 2.0 | 0.00 | 0.00 | 0.00 | 62 | |
| 20260506123841 | 42 | 257 | 1.0 | 3.0 | 0.00 | 0.00 | 0.00 | 62 | |
| 20260506123339 | 41 | 312 | 1.0 | 3.0 | 0.00 | 0.00 | 0.00 | 62 | |
| 20260506122836 | 41 | 251 | 0.0 | 1.0 | 0.00 | 0.00 | 0.00 | 62 | |
| 20260506122333 | 40 | 252 | 0.0 | 1.0 | 0.00 | 0.00 | 0.00 | 62 | |
| 20260506121831 | 40 | 252 | 0.0 | 1.0 | 0.00 | 0.00 | 0.00 | 63 | |
| 20260506121328 | 40 | 252 | 1.0 | 1.0 | 0.00 | 0.00 | 0.00 | 62 | |
| 20260506120825 | 41 | 253 | 0.0 | 2.0 | 0.00 | 0.00 | 0.00 | 61 | |
| 20260506120323 | 41 | 283 | 1.0 | 2.0 | 0.00 | 0.00 | 0.00 | 60 | |
| 20260506115820 | 41 | 253 | 1.0 | 2.0 | 0.00 | 0.00 | 0.00 | 60 |